"Pseudo-MPEC" for C8RJW32

Created 2023 Feb 7 15:22:03 UT using Find_Orb

Click here for an explanation of pseudo-MPECs

 
 Astrometry: 
     C8RJW32*1C2022 12 26.36827208 13 17.702+12 38 15.29   ~CQ9b 20.74GVNEOCPG96
     C8RJW32 1C2022 12 26.37344108 13 15.636+12 38 22.16   ~CQ9b 21.43GVNEOCPG96
     C8RJW32 1C2022 12 26.37860308 13 13.541+12 38 28.82   ~CQ9b       VNEOCPG96
     C8RJW32 1C2022 12 26.38376808 13 11.482+12 38 36.06   ~CQ9b 21.75GVNEOCPG96
     C8RJW32 KC2022 12 26.45657408 12 42.100+12 40 12.30   ~CQBb       VNEOCPI52
     C8RJW32 KC2022 12 26.46184108 12 40.010+12 40 19.90   ~CQBb       VNEOCPI52
     C8RJW32 1C2022 12 27.05193 08 08 41.49 +12 53 30.3    ~CR5q 21.6 VXNEOCP033
     C8RJW32 1C2022 12 27.05454 08 08 40.40 +12 53 33.9    ~CR5q 21.4 VXNEOCP033
     C8RJW32 1C2022 12 27.05714 08 08 39.34 +12 53 37.2    ~CR5q 21.6 VXNEOCP033
     C8RJW32 1C2022 12 28.03811 08 01 51.95 +13 15 38.8    ~CS8b 21.6 VXNEOCP033
     C8RJW32 1C2022 12 28.04060 08 01 50.90 +13 15 42.3    ~CS8b 21.4 VXNEOCP033
     C8RJW32 1C2022 12 30.04793 07 47 17.98 +14 00 42.4    ~CU7q 21.2 VXNEOCP033
     C8RJW32 1C2022 12 30.05007 07 47 17.00 +14 00 45.9    ~CU7q 21.4 VXNEOCP033
     C8RJW32 1C2022 12 30.05220 07 47 16.09 +14 00 48.5    ~CU7q 20.8 VXNEOCP033
     C8RJW32 1C2023 01 02R3hqQ7cU$4HcKcK8g;dboAstrometry#;:0eprredacted;?_-%VT12
     C8RJW32 1C2023 01 028psGu-I8Y2cqTX5'81-SvM#nlYST^cl/\n^i=vHP9s^q/R!2_.bfT12
     C8RJW32 1C2023 01 03.95982 07 08 39.69 +15 44 39.7    ~14J7 20.4 VXNEOCP033
     C8RJW32 1C2023 01 03.96225 07 08 38.53 +15 44 42.2    ~14J7 20.2 VXNEOCP033
     C8RJW32 1C2023 01 03.96533 07 08 37.01 +15 44 46.3    ~14J7 19.6 VXNEOCP033
     C8RJW32 KC2023 01 09.28229706 24 23.720+17 13 41.60   ~197b 20.64GVNEOCPI52
     C8RJW32 KC2023 01 09.28432506 24 22.640+17 13 43.40   ~197b 21.77GVNEOCPI52
     C8RJW32 KC2023 01 09.28635706 24 21.690+17 13 45.30   ~197b 20.93GVNEOCPI52
     C8RJW32*KC2023 01 091VYkc3)LYl.MPQELO?M3j\3B^y\l;HXq'#4n``(SHU)0TO)'btdP587
     C8RJW32 KC2023 01 09)xHEGp(]+QDEclickYQn44nixr()5GeIHqrGrR6IQ4H0eyydhxf:587
     C8RJW32 KC2023 01 09pO\=nA=KmdCE\D5_OI.:hJ9herehi[@Uu%K6ws6j1/_0k)FQ3o_M587
     C8RJW32 KC2023 01 10.21149306 16 42.700+17 25 42.70   ~1A5q 20.64GVNEOCPI52
     C8RJW32 KC2023 01 10.21327206 16 41.820+17 25 44.70   ~1A5q 21.82GVNEOCPI52
     C8RJW32 KC2023 01 10.21505006 16 40.950+17 25 45.30   ~1A5q       VNEOCPI52
     C8RJW32 1C2023 01 11.91718 06 02 47.93 +17 44 48.9    ~1BMb 20.7 VXNEOCP033
     C8RJW32 1C2023 01 11.91879 06 02 47.20 +17 44 50.3    ~1BMb 20.9 VXNEOCP033
     C8RJW32 1C2023 01 11.92041 06 02 46.38 +17 44 51.0    ~1BMb 21.0 VXNEOCP033
     C8RJW32 KC2023 01 12.37991705 59 04.720+17 49 23.80   ~1C9q       VNEOCPI52
     C8RJW32 KC2023 01 12.38161805 59 03.820+17 49 24.50   ~1C9q 20.51GVNEOCPI52
     C8RJW32 KC2023 01 12.38331805 59 03.000+17 49 25.50   ~1C9q       VNEOCPI52
     C8RJW32 KC2023 01 13.39351 05 51 02.58 +17 58 22.1    ~1DB7 21.7 GVNEOCP291
     C8RJW32 KC2023 01 13.39994 05 50 59.55 +17 58 25.3    ~1DB7 22.1 GVNEOCP291
     C8RJW32 KC2023 01 13.40640 05 50 56.52 +17 58 28.6    ~1DB7       VNEOCP291
     C8RJW32 1C2023 01 148cfR!bvTg!jdOZ\?vGN\X@?$KRforMdYeMyEZyvQ-c,w([2d!.2OQ62
     C8RJW32 1C2023 01 14DjexplanationIHtpO^*of)n*nv[U9gSAIe,$MrSLbWjdQ:mjDb0Q62
     C8RJW32 1C2023 01 18.88334 05 10 48.31 +18 26 18.9    ~1IM7 21.9 VXNEOCP033
     C8RJW32 1C2023 01 18.88605 05 10 47.25 +18 26 18.0    ~1IM7 21.1 VXNEOCP033
     C8RJW32 1C2023 01 18.88899 05 10 46.10 +18 26 19.1    ~1IM7 21.5 VXNEOCP033
     C8RJW32 1C2023 01 20.81490 04 58 12.60 +18 29 18.1    ~1KKq 20.6 VXNEOCP033
     C8RJW32 1C2023 01 20.81779 04 58 11.52 +18 29 17.5    ~1KKq 20.7 VXNEOCP033
     C8RJW32 1C2023 01 20.82068 04 58 10.44 +18 29 17.7    ~1KKq 20.9 VXNEOCP033
     C8RJW32 1C2023 01 20.82363 04 58 09.36 +18 29 18.3    ~1KKq 20.8 VXNEOCP033

Station data:
(033) Karl Schwarzschild Observatory, Tautenburg  (N50.980137 E11.711240)
   Germany.  Observers S. Melnikov, C. Hoegner, B. Stecklum. Measurer B.
   Stecklum. 1.34-m f/3 Schmidt + CCD.
(291) LPL/Spacewatch II  (N31.961669 W111.599905)  US/Arizona.  Observers J.
   V. Scotti, R. S. McMillan. 1.8-m f/2.7 reflector + CCD.
(587) Sormano  (N45.882946 E9.229180)  Italy.  Observers E. Colzani, E. Valli.
    Measurer P. Sicoli. 0.5-m f/6.8 reflector + CCD.
(G96) Mt. Lemmon Survey  (N32.442751 W110.788720)  US/Arizona.  Observers T.
   A. Pruyne, B. M. Africano, E. J. Christensen, G. A. Farneth, D. C. Fuls,
   A. R. Gibbs, A. D. Grauer, H. Gröller, J. A. Johnson, R. A. Kowalski, S.
   M. Larson, G. J. Leonard, D. Rankin, R. L. Seaman, F. C. Shelly, K. W.
   Wierzchoś. 1.5-m reflector + 10K CCD.
(I52) Steward Observatory, Mt. Lemmon Station  (N32.442544 W110.788920)
   US/Arizona.  Observers T. A. Pruyne, B. M. Africano, E. J. Christensen, G.
   A. Farneth, D. C. Fuls, A. R. Gibbs, A. D. Grauer, H. Gröller, J. A.
   Johnson, R. A. Kowalski, S. M. Larson, G. J. Leonard, D. Rankin, R. L.
   Seaman, F. C. Shelly, K. W. Wierzchoś. 1.0-m reflector + CCD.
(Q62) iTelescope Observatory, Siding Spring  (S31.273286 E149.064420)
   Australia/NSW.  Observer H. Sato. 0.51-m f/6.8 astrograph + CCD + f/4.5
   focal reducer0.43-m f/6.8 astrograph + CCD + focal reducer0.43-m f/6.8
   astrograph + CCD0.10-m f/5 astrograph + CCD0.127-m f/5.6 refractor +
   CCD0.50-m f/6.8 reflector + CCD0.30-m f/9 reflector + CCD.
(T12) Mauna Kea-UH/Tholen NEO Follow-Up (2.24-m)  (N19.822991 W155.469434)
   US/Hawaii.  Observers D. Fohring, D. Hung, Y. Ramanjooloo, Z. Claytor, D.
   J. Tholen. 2.24-m f/10.1 University of Hawaii reflector.

Orbital elements:  C8RJW32
   Perihelion 2023 Feb 7.44923 +/- 0.0598 TT = 10:46:53 (JD 2459982.94923)
Epoch 2023 Jan 20.0 TT = JDT 2459964.5   Earth MOID: 0.9225   Ju: 0.6566
M 359.32670661 +/- 0.010            Sa: 0.8628                   AutoNEOCP
n   0.03649439 +/- 0.000451         Peri.  349.69656 +/- 0.032
a   9.00157755 +/- 0.0742           Node    77.60967 +/- 0.007
e   0.7882692 +/- 0.00171           Incl.  172.74871 +/- 0.0011
P  27.01                   H 18.98  G  0.15   U  7.6
q 1.90591102 +/- 0.000266    Q 16.0972440 +/- 0.148       (J2000 ecliptic)
From 46 observations 2022 Dec. 26-2023 Jan. 20; mean residual 0".43
Residuals in arcseconds: 
221226 G96  .16+  .32+    230103 033  .27-  .12+    230112 I52  .00   .20+    
221226 G96  .35+  .27+    230103 033  .32+  .23-    230112 I52  .01-  .24+    
221226 G96  .08+  .02+    230103 033  .35+  .26+    230113 291  .07-  .06-    
221226 G96  .36+  .34+    230109 I52  .36+  .24-    230113 291  .08+  .04+    
221226 I52  .42-  .76-    230109 I52  .54-  .08-    230113 291  .41+  .24+    
221226 I52  .07+  .19-    230109 I52  .45+  .17+    230114 Q62  .14+  .04-    
221227 033  .13-  .27+    230109 587  1.3-  .92+    230114 Q62  .56+  .15-    
221227 033  .38-  .36+    230109 587  1.0-  .77+    230118 033  .33-  .42+    
221227 033  .26-  .16+    230109 587  1.1-  .76+    230118 033  .29+  .86-    
221228 033  .14-  .23-    230110 I52  .34-  .62-    230118 033  .95+  .16-    
221228 033  .04-  .09-    230110 I52  .27-  .05+    230120 033  .71-  .31+    
221230 033  .34-  .28-    230110 I52  .06-  .67-    230120 033  .46-  .44-    
221230 033  .60-  .36+    230111 033  .34-  .28-    230120 033  .20-  .38-    
221230 033  .09+  .12+    230111 033  .42+  .15+    230120 033  .37+  .07+    
230102 T12  .04+  .05-    230111 033  .05-  .13-    
230102 T12  .04+  .01-    230112 I52  1.1+  .45+    

Ephemerides (geocentric):
Date (UTC) HH   RA             Dec           delta  r     elong  mag " sig PA
---- --------  ------------   ------------  ------ ------ -----  --- --------
2023 02 07 15  03 40 20.181   +17 53 03.09  1.4881 1.9059  98.7 22.6 1.77  73
2023 02 07 16  03 40 13.238   +17 52 56.52  1.4891 1.9059  98.7 22.6 1.77  73
2023 02 07 17  03 40 06.309   +17 52 49.96  1.4902 1.9059  98.6 22.6 1.78  73
2023 02 07 18  03 39 59.394   +17 52 43.40  1.4913 1.9059  98.5 22.6 1.78  73
2023 02 07 19  03 39 52.493   +17 52 36.85  1.4923 1.9059  98.5 22.6 1.79  73
2023 02 07 20  03 39 45.607   +17 52 30.32  1.4934 1.9059  98.4 22.6 1.79  73
2023 02 07 21  03 39 38.734   +17 52 23.79  1.4945 1.9059  98.3 22.6 1.80  73
2023 02 07 22  03 39 31.876   +17 52 17.26  1.4955 1.9059  98.2 22.6 1.80  73
2023 02 07 23  03 39 25.032   +17 52 10.75  1.4966 1.9059  98.2 22.6 1.81  73
2023 02 08 00  03 39 18.203   +17 52 04.25  1.4977 1.9059  98.1 22.6 1.81  73
2023 02 08 01  03 39 11.387   +17 51 57.75  1.4987 1.9059  98.0 22.6 1.82  73
2023 02 08 02  03 39 04.585   +17 51 51.27  1.4998 1.9059  98.0 22.6 1.82  73
2023 02 08 03  03 38 57.798   +17 51 44.79  1.5009 1.9059  97.9 22.6 1.83  73
2023 02 08 04  03 38 51.024   +17 51 38.32  1.5020 1.9059  97.8 22.6 1.83  73
2023 02 08 05  03 38 44.265   +17 51 31.86  1.5030 1.9059  97.8 22.6 1.83  73
2023 02 08 06  03 38 37.519   +17 51 25.41  1.5041 1.9059  97.7 22.6 1.84  73
2023 02 08 07  03 38 30.788   +17 51 18.97  1.5052 1.9059  97.6 22.6 1.84  73
2023 02 08 08  03 38 24.070   +17 51 12.54  1.5063 1.9059  97.6 22.6 1.85  73
2023 02 08 09  03 38 17.366   +17 51 06.12  1.5073 1.9059  97.5 22.6 1.85  73
2023 02 08 10  03 38 10.676   +17 50 59.71  1.5084 1.9059  97.4 22.6 1.86  73
2023 02 08 11  03 38 04.000   +17 50 53.30  1.5095 1.9059  97.4 22.6 1.86  73
2023 02 08 12  03 37 57.337   +17 50 46.91  1.5106 1.9059  97.3 22.6 1.87  73
2023 02 08 13  03 37 50.689   +17 50 40.52  1.5116 1.9059  97.2 22.7 1.87  73
2023 02 08 14  03 37 44.054   +17 50 34.15  1.5127 1.9060  97.1 22.7 1.88  73
2023 02 08 15  03 37 37.433   +17 50 27.78  1.5138 1.9060  97.1 22.7 1.88  73
2023 02 08 16  03 37 30.825   +17 50 21.42  1.5149 1.9060  97.0 22.7 1.89  73
2023 02 08 17  03 37 24.232   +17 50 15.08  1.5159 1.9060  96.9 22.7 1.89  73
2023 02 08 18  03 37 17.651   +17 50 08.74  1.5170 1.9060  96.9 22.7 1.90  73
2023 02 08 19  03 37 11.085   +17 50 02.41  1.5181 1.9060  96.8 22.7 1.90  73
2023 02 08 20  03 37 04.532   +17 49 56.09  1.5192 1.9060  96.7 22.7 1.90  73
2023 02 08 21  03 36 57.993   +17 49 49.78  1.5202 1.9060  96.7 22.7 1.91  73
2023 02 08 22  03 36 51.467   +17 49 43.48  1.5213 1.9060  96.6 22.7 1.91  73
2023 02 08 23  03 36 44.954   +17 49 37.19  1.5224 1.9060  96.5 22.7 1.92  73
2023 02 09 00  03 36 38.456   +17 49 30.91  1.5235 1.9060  96.5 22.7 1.92  73
2023 02 09 01  03 36 31.970   +17 49 24.64  1.5245 1.9060  96.4 22.7 1.93  73
2023 02 09 02  03 36 25.498   +17 49 18.38  1.5256 1.9060  96.3 22.7 1.93  73
2023 02 09 03  03 36 19.040   +17 49 12.13  1.5267 1.9060  96.3 22.7 1.94  73
2023 02 09 04  03 36 12.594   +17 49 05.89  1.5278 1.9060  96.2 22.7 1.94  73
2023 02 09 05  03 36 06.162   +17 48 59.66  1.5289 1.9060  96.1 22.7 1.95  73
2023 02 09 06  03 35 59.744   +17 48 53.44  1.5299 1.9060  96.1 22.7 1.95  73
2023 02 09 07  03 35 53.339   +17 48 47.23  1.5310 1.9060  96.0 22.7 1.96  73
2023 02 09 08  03 35 46.947   +17 48 41.03  1.5321 1.9060  95.9 22.7 1.96  73
2023 02 09 09  03 35 40.568   +17 48 34.84  1.5332 1.9060  95.9 22.7 1.96  73
2023 02 09 10  03 35 34.202   +17 48 28.66  1.5343 1.9060  95.8 22.7 1.97  73
2023 02 09 11  03 35 27.850   +17 48 22.49  1.5353 1.9060  95.7 22.7 1.97  73
2023 02 09 12  03 35 21.511   +17 48 16.33  1.5364 1.9060  95.7 22.7 1.98  73
2023 02 09 13  03 35 15.185   +17 48 10.18  1.5375 1.9060  95.6 22.7 1.98  73
2023 02 09 14  03 35 08.872   +17 48 04.04  1.5386 1.9061  95.5 22.7 1.99  73